Location: ????
(33.1659°N, 35.6604°E)
Time: 09:49:18
(UTC+00:00)

GPS 2-05 Rocket1 - Pass Details

Date: 20 September 2019
Orbit: 312 x 338 km, 35.6° (Epoch: 15 October)

Event Time Altitude Azimuth Distance (km) Brightness Sun altitude
Rises 16:50:23 0° 274° (W) 2,043 8.0 -16.0°
Reaches altitude 10° 16:52:45 10° 254° (WSW) 1,205 6.0 -16.4°
Maximum altitude 16:54:41 18° 208° (SSW) 864 4.5 -16.8°
Enters shadow 16:55:22 16° 188° (S) 911 4.4 -17.0°
